Regional Weather Roundup
Issued by NWS Raleigh/Durham, NC

Home | Current Version | Previous Version | Text Only | Print | Product List | Glossary On
Versions: 1 2 3 4 5 6 7 8 9 10 11 12 13 14 15 16 17 18 19 20 21 22 23 24 25 26 27 28 29 30 31 32 33 34 35 36 37 38 39 40 41 42 43 44 45 46 47 48 49 50
000
ASUS42 KRAH 240810
RWRRAH
NORTH CAROLINA WEATHER ROUNDUP
NATIONAL WEATHER SERVICE RALEIGH NC
400 AM EDT SAT JUN 24 2017

NOTE: "FAIR" INDICATES FEW OR NO CLOUDS BELOW 12,000 FEET WITH NO
SIGNIFICANT WEATHER AND/OR OBSTRUCTIONS TO VISIBILITY.

NCZ001-053-055-056-065-067-240900-
WESTERN NORTH CAROLINA

CITY           SKY/WX    TMP DP  RH WIND       PRES   REMARKS
ASHEVILLE      CLOUDY    70  66  87 N8        29.98R
JEFFERSON      CLEAR     63  59  85 W13       29.98R
HICKORY        CLOUDY    73  66  78 SW5       29.90R
RUTHERFORDTON  NOT AVBL
MOUNT AIRY     CLOUDY    71  65  83 CALM      29.90R
BOONE          NOT AVBL
$$

NCZ021-022-025-041-071-084-088-240900-
CENTRAL NORTH CAROLINA

CITY           SKY/WX    TMP DP  RH WIND       PRES   REMARKS
CHARLOTTE      MOCLDY    75  70  84 SW7       29.91R
GREENSBORO     CLOUDY    75  73  93 SW14      29.86R
WINSTON-SALEM  CLOUDY    74  69  85 SW8       29.87S
RALEIGH-DURHAM LGT RAIN  78  75  90 SW14      29.84R
FORT BRAGG     PTCLDY    78  72  82 SW12      29.86F
FAYETTEVILLE   CLEAR     79  73  82 SW15      29.88F
BURLINGTON     CLOUDY    77  73  87 SW13      29.84R
LAURINBURG     CLOUDY    78  74  87 SW15      29.90F
$$

NCZ011-015-027-028-043-044-047-080-103-240900-
NORTHEASTERN NORTH CAROLINA

CITY           SKY/WX    TMP DP  RH WIND       PRES   REMARKS
ROCKY MT-WILSO CLEAR     77  72  84 S15G26    29.83F
GREENVILLE     CLEAR     77  70  78 SW15G23   29.88S
WASHINGTON     CLEAR    N/A N/A N/A SW13G18   29.87S
ELIZABETH CITY PTCLDY    79  70  74 SW18G28   29.82F
MANTEO         CLEAR     79  73  81 SW22G29   29.85S
CAPE HATTERAS  CLEAR     79  74  84 SW20G28   29.91S
$$

NCZ078-087-090-091-093-098-101-240900-
SOUTHEASTERN NORTH CAROLINA

CITY           SKY/WX    TMP DP  RH WIND       PRES   REMARKS
LUMBERTON      MOCLDY    77  73  87 SW10      29.90F
GOLDSBORO      CLEAR     77  75  92 SW13G24   29.86S
KINSTON        CLEAR     77  71  80 S14       29.89S
KENANSVILLE    CLEAR     77  72  83 SW7       29.90S
NEW BERN       CLEAR     78  73  84 SW13G21   29.91S
CHERRY POINT   MOCLDY    80  74  81 SW23G31   29.91S
BEAUFORT       CLOUDY    80  78  94 SW22G29   29.93R
JACKSONVILLE   CLEAR     79  74  84 SW10G18   29.91S
WILMINGTON     MOCLDY    80  75  84 S14G26    29.93S
$$




USA.gov is the U.S. government's official web portal to all federal, state and local government web resources and services.